Regional Weather Roundup
Issued by NWS

Home | Current Version | Previous Version | Text Only | Print | Product List | Glossary Off
Versions: 1 2 3 4 5 6 7 8 9 10 11 12 13 14 15 16 17 18 19 20 21 22 23 24 25 26 27 28 29 30 31 32 33 34 35 36 37 38 39 40 41 42 43 44 45 46 47 48 49 50

000
ASUS43 KIND 161659
RWRIN

WEATHER ROUNDUP FOR INDIANA
NATIONAL WEATHER SERVICE INDIANAPOLIS IN
100 PM EDT WED APR 16 2014

NOTE: "FAIR" INDICATES FEW OR NO CLOUDS BELOW 12,000 FEET WITH NO
SIGNIFICANT WEATHER AND/OR OBSTRUCTIONS TO VISIBILITY.

* - STATION DOES NOT REPORT WEATHER SUCH AS PRECIPITATION OR FOG.

+ - STATION NOT QUALITY CONTROLLED BY THE NATIONAL WEATHER SERVICE.
    USE DATA WITH CAUTION...ESPECIALLY DEWPOINT AND RELATIVE
    HUMIDITY OBSERVATIONS.

INZ001>003-010>013-019-020-161800-
NORTHWEST INDIANA

CITY           SKY/WX    TMP DP  RH WIND       PRES   REMARKS
GARY /AIRPORT/ MOSUNNY   46  25  42 SE16G28   30.32F
LA PORTE +     SUNNY     43  21  40 S12G20    30.33F
MONTICELLO +   SUNNY     43  22  43 S13G18    30.33F
VALPARAISO     SUNNY     44  20  38 S16G25    30.33F

$$

LMZ046-743>745-161800-
SOUTHERN LAKE MICHIGAN

STATION/POSITION TIME  TEMP WIND        PRES
                       AIR  DIR/SP/G
                 (UTC) (F)  (DEG/KT/KT) (MB)
MICHIGAN CITY    1600   40  140/ 12/ 18   N/A

$$

INZ004-005-014>016-021>024-161800-
NORTH CENTRAL INDIANA

CITY           SKY/WX    TMP DP  RH WIND       PRES   REMARKS
ELKHART        SUNNY     41  16  36 S12G18    30.35F
GOSHEN         SUNNY     43  19  38 S14       30.36F
SOUTH BEND     SUNNY     45  19  35 S13       30.35F

$$

INZ006>009-017-018-025>027-161800-
NORTHEAST INDIANA

CITY           SKY/WX    TMP DP  RH WIND       PRES   REMARKS
ANGOLA *+      SUNNY     39  21  48 S9        30.38F
FORT WAYNE     MOSUNNY   42  19  39 SE16G26   30.40F

$$

INZ028-029-035-036-043>045-051>053-161800-
WEST CENTRAL INDIANA

CITY           SKY/WX    TMP DP  RH WIND       PRES   REMARKS
GREENCASTLE +  SUNNY     45  23  42 SE14G21   30.34F
LAFAYETTE      SUNNY     44  22  41 S16       30.33F
TERRE HAUTE    SUNNY     46  24  42 SE12      30.34F

$$

INZ030>032-037>040-046>048-054>057-064-065-161800-
CENTRAL INDIANA

CITY           SKY/WX    TMP DP  RH WIND       PRES   REMARKS
ANDERSON       SUNNY     43  19  39 SE17      30.38F
COLUMBUS       SUNNY     43  18  36 SE12      30.39F
INDIANAPOLIS   MOSUNNY   43  21  41 SE15G26   30.35F
-EAGLE CREEK   SUNNY     43  20  39 SE13G21   30.35F
KOKOMO *+      SUNNY     43  21  42 SE16      30.36F
MT COMFORT *+  SUNNY     43  23  45 SE15      30.37F
SHELBYVILLE    SUNNY     45  22  40 SE12      30.37F

$$

INZ033-034-041-042-049-050-058-059-161800-
EAST CENTRAL INDIANA

CITY           SKY/WX    TMP DP  RH WIND       PRES   REMARKS
MUNCIE         SUNNY     42  21  43 SE16G22   30.37F

$$

INZ060-061-067>069-081>083-085>088-161800-
SOUTHWEST INDIANA

CITY           SKY/WX    TMP DP  RH WIND       PRES   REMARKS
EVANSVILLE     MOSUNNY   46  24  42 E10       30.35F
HUNTINGBURG *+ MOSUNNY   46  23  39 SE10G16   30.36F

$$

INZ062-063-066-070>080-084-089>092-161800-
SOUTH CENTRAL AND SOUTHEAST INDIANA

CITY           SKY/WX    TMP DP  RH WIND       PRES   REMARKS
BLOOMINGTON    SUNNY     44  23  43 SE12G21   30.34F

$$




USA.gov is the U.S. government's official web portal to all federal, state and local government web resources and services.